ORCASAT

Last updated on Fri Jul 07 2023 00:02:14 GMT+0000 (Coordinated Universal Time)

1 55126U 98067UT 23187.29208527 .03011209 12039-4 90352-3 0 9992 2 55126 51.6183 205.4266 0005027 336.4381 23.6408 16.26217302 29747

Satellite not in orbit